SB KEPS @ AMSAT $ORB26195.1 2Line Orbital Elements 26195.AMSAT QST de W1STR AMSAT Orbital Elements for Amateur Satellites in TLE Format From Orbital Analysis Office New England Sci-Tech STEM Education Center Natick MA July 14, 2026 To all radio amateurs These element sets describe the orbits of various satellites in use by the amateur radio community. For details see: www.amsat.org/keplerian-elements-formats/ A daily update of element sets is available at: www.amsat.org/tle/daily-bulletin.txt or without bulletin text: www.amsat.org/tle/dailytle.txt AO-07 1 07530U 74089B 26195.03649198 -.00000030 00000-0 99893-4 0 9992 2 07530 101.9905 208.5629 0012657 80.4928 348.4864 12.53698534363887 UO-11 1 14781U 84021B 26194.86752083 .00000684 00000-0 75115-4 0 9998 2 14781 97.8075 160.1477 0009198 95.1181 265.1087 14.90847126261108 LO-19 1 20442U 90005G 26195.04285069 .00000042 00000-0 31693-4 0 9995 2 20442 98.8847 217.5876 0012504 124.5771 235.6594 14.34130536906248 AO-27 1 22825U 93061C 26195.20017669 .00000039 00000-0 31953-4 0 9999 2 22825 98.6869 262.6022 0008818 28.6268 331.5397 14.30948896710869 FO-29 1 24278U 96046B 26195.14876856 .00000015 00000-0 50140-4 0 9996 2 24278 98.5220 40.3250 0350411 26.6515 335.2172 13.53275581476813 GO-32 1 25397U 98043D 26194.96741119 .00000013 00000-0 25815-4 0 9999 2 25397 99.0084 188.4033 0002157 116.4622 243.6777 14.24433220455142 ISS 1 25544U 98067A 26195.15353936 .00004039 00000-0 81426-4 0 9999 2 25544 51.6308 166.6375 0006704 293.6864 66.3421 15.49005057575931 NO-44 1 26931U 01043C 26195.18939458 .00000010 00000-0 34689-4 0 9994 2 26931 67.0494 174.4309 0005925 266.5157 93.5268 14.31964773294311 SO-50 1 27607U 02058C 26195.19516802 .00000388 00000-0 63774-4 0 9992 2 27607 64.5517 45.4195 0074559 257.4690 101.8068 14.83097342268464 CO-55 1 27844U 03031E 26195.01226219 .00000150 00000-0 83592-4 0 9995 2 27844 98.6742 203.2342 0010809 105.7080 254.5292 14.24351102195498 RS-22 1 27939U 03042A 26195.18432279 .00000769 00000-0 12649-3 0 9995 2 27939 98.3470 20.3073 0011131 176.4663 315.0484 14.73514156219529 CO-65 1 32785U 08021C 26195.16052352 .00003093 00000-0 19607-3 0 9994 2 32785 97.8289 177.1472 0007115 303.6088 56.4461 15.09695039989268 CO-66 1 32791U 08021J 26194.95931626 .00011026 00000-0 34146-3 0 9997 2 32791 97.7520 194.1541 0002932 158.7607 201.3756 15.33640090991395 RS-30 1 32953U 08025A 26195.13909505 .00000061 00000-0 36661-3 0 9994 2 32953 82.5054 338.6732 0018583 251.4538 108.4523 12.43180930823044 SRMSAT 1 37841U 11058D 26194.45621951 .00000344 00000-0 42889-4 0 9999 2 37841 19.9713 260.4725 0011811 132.1672 338.6137 14.11580880761534 ZACUBE-1 1 39417U 13066B 26194.93495080 .00001330 00000-0 10618-3 0 9996 2 39417 97.8009 157.4041 0043958 159.2498 201.0523 15.01325644684741 Delfi-N3xt 1 39428U 13066N 26195.01363855 .00003335 00000-0 29078-3 0 9999 2 39428 97.8334 115.3030 0075755 116.6491 244.2514 14.95352305678631 GOMX-1 1 39430U 13066Q 26195.14989131 .00000799 00000-0 12654-3 0 9990 2 39430 97.6470 33.9113 0128377 351.5784 8.3268 14.69541528673878 LO-74 1 39440U 13066AA 26194.85564855 .00001982 00000-0 18634-3 0 9999 2 39440 97.8911 143.9522 0055843 299.8965 59.6713 14.93961470680971 AO-73 1 39444U 13066AE 26194.96715403 .00003609 00000-0 22382-3 0 9995 2 39444 97.8287 166.9802 0038025 111.5957 248.9329 15.09809112683703 DTUSAT-2 1 40030U 14033W 26194.98405073 .00003600 00000-0 19481-3 0 9991 2 40030 98.0872 194.4201 0009266 135.3540 224.8439 15.15343677656740 LILACSAT-2 1 40908U 15049K 26195.16027172 .00012820 00000-0 21186-3 0 9993 2 40908 97.4624 233.0387 0008363 144.5879 215.5930 15.52336114599930 Lapan A3 1 41603U 16040E 26195.21118523 .00001940 00000-0 62632-4 0 9998 2 41603 97.1504 190.4735 0008266 280.5553 79.4759 15.33274204558955 CAS-2T 1 41847U 16066G 26195.18162937 .00000568 00000-0 87908-4 0 9998 2 41847 98.3813 270.6089 0342292 47.8306 315.1423 14.44769101508694 TechnoSat 1 42829U 17042E 26195.04287340 .00001918 00000-0 13854-3 0 9993 2 42829 97.4314 351.6848 0017539 7.2436 352.9041 15.05107048490746 AO-91 1 43017U 17073E 26195.12704152 .00004246 00000-0 18661-3 0 9999 2 43017 97.4668 61.7931 0148209 235.2076 123.5134 15.13052032469463 S-Net D 1 43186U 18014G 26195.17979986 .00002535 00000-0 13206-3 0 9995 2 43186 97.5337 99.8031 0006301 289.4280 70.6272 15.16912564462850 S-Net B 1 43187U 18014H 26195.19178355 .00002583 00000-0 13455-3 0 9998 2 43187 97.5341 99.8025 0006891 283.0529 76.9934 15.16882444462856 S-Net A 1 43188U 18014J 26195.17852839 .00002530 00000-0 13176-3 0 9995 2 43188 97.5351 100.0034 0006794 284.3753 75.6726 15.16920829462853 S-Net C 1 43189U 18014K 26195.19580384 .00002608 00000-0 13587-3 0 9993 2 43189 97.5371 100.0994 0008148 274.5808 85.4494 15.16873730461407 Ten-Koh 1 43677U 18084G 26195.08667731 .00001812 00000-0 13937-3 0 9997 2 43677 98.0757 28.5813 0009909 33.6373 326.5478 15.03042467420209 PO-101 1 43678U 18084H 26195.17737841 .00001152 00000-0 96416-4 0 9999 2 43678 98.1214 32.5677 0012888 87.3874 272.8824 15.00560838420262 QO-100 1 43700U 18090A 26195.13638836 .00000138 00000-0 00000+0 0 9994 2 43700 0.0180 33.3857 0002160 125.7382 207.7573 1.00270304 27941 MinXSS-2 1 43758U 18099A 26195.17952541 .00026112 00000-0 48664-3 0 9994 2 43758 97.4530 272.2893 0008403 164.1023 196.0492 15.48771409418305 AO-95 1 43770U 18099N 26195.14167903 .00006551 00000-0 24788-3 0 9991 2 43770 97.4374 255.2963 0007177 244.6856 115.3640 15.27260267417332 SNUSat 2 1 43782U 18099AA 26195.09087038 .00005106 00000-0 22490-3 0 9991 2 43782 97.4048 248.0655 0010104 191.6261 168.4744 15.22229989417128 SnugLite 1 43784U 18099AC 26195.13376819 .00006789 00000-0 25317-3 0 9995 2 43784 97.3856 249.1562 0003508 162.7909 197.3449 15.27744217417431 ITASat 1 1 43786U 18099AE 26195.09229179 .00004083 00000-0 19599-3 0 9998 2 43786 97.4016 246.0701 0010814 254.8802 105.1236 15.19374072416996 EAGLET 1 1 43790U 18099AJ 26195.10169009 .00002151 00000-0 12494-3 0 9991 2 43790 97.4219 244.0583 0009600 248.5716 111.4491 15.13128987416402 ESEO 1 43792U 18099AL 26195.05385552 .00001440 00000-0 10745-3 0 9997 2 43792 97.3956 231.2903 0010908 238.1497 121.8668 15.04319188415842 JO-97 1 43803U 18099AX 26195.16525088 .00009989 00000-0 30106-3 0 9991 2 43803 97.4121 258.1063 0006750 161.0997 199.0497 15.34498350417766 Suomi 100 1 43804U 18099AY 26195.10875762 .00007855 00000-0 28103-3 0 9997 2 43804 97.4178 255.4105 0010487 176.4043 183.7274 15.29016704417531 ISAT 1 43879U 18111D 26194.77616691 .00075476 00000-0 60900-3 0 9995 2 43879 97.5860 132.1476 0007696 142.6470 217.5329 15.70609178415333 UWE-4 1 43880U 18111E 26194.80072744 .00020115 00000-0 38928-3 0 9991 2 43880 97.5848 124.4503 0005951 200.2503 159.8511 15.47760123414899 Sparrow 1 43881U 18111F 26194.80984089 .00175648 00000-0 75834-3 0 9995 2 43881 97.6079 138.3734 0007929 141.3804 218.8034 15.84445843415575 Prox-1 1 44339U 19036A 26194.42673105 .00007059 00000-0 66459-3 0 9996 2 44339 23.9956 298.8895 0005861 348.2217 11.8145 14.91225199377397 Taurus 1 1 44530U 19059C 26195.15660984 .00003183 00000-0 51154-3 0 9996 2 44530 98.6426 1.6655 0007942 218.9233 141.1402 14.72361952362617 TO-108 1 44881U 19093C 26195.17132380 .00001007 00000-0 11955-3 0 9997 2 44881 97.7531 266.7442 0013683 5.1756 354.9598 14.86562658355428 RS-44 1 44909U 19096E 26194.82115456 .00000000 00000-0 -51609-4 0 9991 2 44909 82.5240 322.0071 0218543 82.1898 280.3952 12.79748918305758 SALSAT 1 46495U 20068K 26194.96022582 .00004471 00000-0 15597-3 0 9996 2 46495 97.8856 199.6626 0009069 197.5036 162.5892 15.30161661319452 CSS (TIANHE-1) 1 48274U 21035A 26195.18938242 .00000775 00000-0 14292-4 0 9997 2 48274 41.4690 157.9320 0002447 303.4143 56.6460 15.58062507297388 CUTE 1 49263U 21088D 26194.82176346 .01771439 24136-5 11689-2 0 9992 2 49263 97.4004 296.9840 0009233 294.1930 65.8392 16.17028853266810 TeikyoSat 4 1 49396U 21102B 26195.03308767 .00001136 00000-0 74373-4 0 9993 2 49396 97.3665 223.4729 0011635 192.5847 167.5093 15.09596053256771 Z-Sat 1 49399U 21102E 26195.15216067 .00003502 00000-0 17254-3 0 9993 2 49399 97.3316 229.6575 0017518 147.9813 212.2490 15.18461316257534 KOSEN 1 1 49402U 21102H 26195.07414497 .00004724 00000-0 17935-3 0 9999 2 49402 97.3171 236.7126 0015380 111.1219 249.1666 15.27204286258128 HO-113 1 50466U 21131B 26195.19727521 .00000246 00000-0 89471-4 0 9991 2 50466 98.4992 287.4412 0004655 33.2148 326.9332 14.41381168239002 SNUGLITE 2 1 52899U 22065F 26194.88446559 .00000444 00000-0 93251-4 0 9995 2 52899 98.2232 339.6727 0006291 305.5443 54.5173 14.64393006214907 UmKA 1 (RS40S) 1 57172U 23091G 26195.19914007 .00003326 00000-0 15237-3 0 9996 2 57172 97.5039 253.7952 0013168 32.8184 327.3866 15.21114664168118 CubeBel-2 (EU11S) 1 57175U 23091K 26195.20361649 .00007802 00000-0 27258-3 0 9998 2 57175 97.5041 258.6718 0009672 29.8764 330.3026 15.29809305168431 RS-38S 1 57189U 23091Z 26195.17534338 .00009427 00000-0 26385-3 0 9991 2 57189 97.5085 265.2153 0005742 343.8040 16.3019 15.36854708168833 SONATE-2 1 59112U 24043Q 26194.95526617 .00029149 00000-0 35093-3 0 9992 2 59112 97.5553 347.0382 0006889 110.1263 250.0735 15.60757395132068 GRBBeta 1 60237U 24128C 26195.16407140 .00001802 00000-0 13324-3 0 9998 2 60237 61.9897 121.6054 0037194 140.4046 219.9774 15.06804555110338 Curium One 1 60242U 24128H 26195.14012508 .00004022 00000-0 23685-3 0 9990 2 60242 61.9787 110.2863 0036599 136.1273 224.2740 15.12857201110533 ROBUSTA-3A 1 60243U 24128J 26195.18646720 .00004254 00000-0 25552-3 0 9996 2 60243 61.9865 112.7438 0038197 133.7055 226.7216 15.11978177110500 CatSat 1 60246U 24125J 26195.07446260 .00052938 00000-0 59686-3 0 9998 2 60246 97.2052 47.9881 0020536 86.6347 273.7260 15.62105325111585 HYPERVIEW-1G (RS66S) 1 61772U 24199AP 26194.97856389 .00176797 00000-0 74626-3 0 9990 2 61772 97.2813 76.2153 0008247 151.3914 208.7811 15.84916828138904 AO-123 1 61781U 24199AY 26195.13801147 .00004539 00000-0 13131-3 0 9999 2 61781 97.2966 63.5680 0012892 204.6366 155.4264 15.36044360138068 JINJUSat 1B 1 63210U 25052A 26195.15294740 .00010022 00000-0 30376-3 0 9998 2 63210 97.3971 91.9560 0003332 31.3346 328.8094 15.34332269 74239 NUSHSAT 1 1 63211U 25052B 26194.69571110 .00012207 00000-0 33930-3 0 9992 2 63211 97.3951 92.1587 0003349 42.9691 317.1815 15.37003406 74210 TEVEL2-4 1 63213U 25052D 26195.16880012 .00010817 00000-0 31530-3 0 9990 2 63213 97.3874 91.6185 0003629 53.7808 306.3771 15.35543856 74256 TEVEL2-5 1 63214U 25052E 26195.12727550 .00011592 00000-0 33972-3 0 9997 2 63214 97.3871 91.5170 0003740 55.0264 305.1330 15.35356519 74247 TEVEL2-6 1 63215U 25052F 26194.68399480 .00010540 00000-0 30960-3 0 9991 2 63215 97.3876 91.0570 0003725 58.8259 301.3350 15.35309707 74179 TEVEL2-1 1 63217U 25052H 26195.17892284 .00010878 00000-0 32509-3 0 9993 2 63217 97.3850 91.1450 0004326 62.5527 297.6156 15.34753724 74238 TEVEL2-3 1 63218U 25052J 26195.17252395 .00010440 00000-0 31151-3 0 9994 2 63218 97.3851 91.1639 0004095 63.3095 296.8567 15.34815122 74239 TEVEL2-2 1 63219U 25052K 26195.17905770 .00010846 00000-0 32404-3 0 9999 2 63219 97.3845 91.1481 0004384 62.7523 297.4166 15.34764241 74235 TEVEL2-9 1 63237U 25052AD 26195.19196980 .00010152 00000-0 32345-3 0 9990 2 63237 97.3911 90.4760 0007744 60.2965 299.9047 15.32713369 74167 TEVEL2-7 1 63238U 25052AE 26195.17294671 .00009686 00000-0 31178-3 0 9998 2 63238 97.3909 90.3613 0007835 59.6827 300.5189 15.32397562 74159 TEVEL2-8 1 63239U 25052AF 26195.18145931 .00009635 00000-0 31031-3 0 9996 2 63239 97.3909 90.3457 0007858 60.3115 299.8909 15.32382462 74153 SPIRONE 1 66657U 25274H 26195.05243777 .00000766 00000-0 77855-4 0 9993 2 66657 97.7474 123.9610 0010472 287.9396 72.0682 14.93650109 34235 K-HERO 1 66660U 25274L 26195.11657797 .00000629 00000-0 64242-4 0 9999 2 66660 97.7482 124.2052 0012407 292.1129 67.8774 14.94059020 34256 SNUGLITE-III DURI 1 66661U 25274M 26195.03676487 .00000777 00000-0 77997-4 0 9993 2 66661 97.7480 124.1472 0013008 293.4073 66.5779 14.94089389 34241 SAKHACUBE-CHOLBON 1 67290U 25313AU 26195.19176753 .00005205 00000-0 20916-3 0 9993 2 67290 97.3930 269.8959 0007714 255.3435 104.6948 15.25349644 30098 RS95S (QMR-KWT-2) 1 67291U 25313AV 26195.15334359 .00008174 00000-0 31133-3 0 9999 2 67291 97.3927 270.0935 0007452 251.3294 108.7136 15.26960121 30107 Ten-Koh2 1 68261U 25241B 26195.16285782 .00002390 00000-0 11050-3 0 9993 2 68261 51.6588 191.2220 0004574 226.7124 133.3473 15.24166782 19027 JACK-002 1 68417U 26067B 26194.83101874 .00003957 00000-0 18850-3 0 9990 2 68417 97.4579 153.1001 0002914 136.9406 223.2057 15.19704246 15999 DISCO 2 1 68431U 26067R 26194.85711080 .00004292 00000-0 20565-3 0 9993 2 68431 97.4611 153.1151 0000407 168.6080 191.5164 15.19458504 15992 HADES-SA (SpinnyONE) 1 68446U 26067AG 26194.43111462 .00010969 00000-0 51268-3 0 9993 2 68446 97.4412 152.3520 0006248 9.6807 350.4548 15.19944702 15912 PARUS-6U1 1 68456U 26067AS 26194.82539303 .00003451 00000-0 17410-3 0 9994 2 68456 97.4566 152.7862 0004894 353.5824 6.5346 15.17785759 15975 SAL-E 1 68458U 26067AU 26194.81571166 .00004373 00000-0 21753-3 0 9997 2 68458 97.4490 152.6980 0005423 4.2358 355.8921 15.18127636 15978 FSI-SAT 2 1 68792U 26088A 26194.38154105 .00001819 00000-0 12522-3 0 9999 2 68792 97.5087 342.9902 0014709 23.7300 336.4603 15.07030401 12239 OrigamiSat 2 1 68795U 26088D 26194.81856226 .00006616 00000-0 41790-3 0 9992 2 68795 97.5098 343.6373 0014239 351.8467 8.2529 15.09306987 12318 ARICA 2 1 68796U 26088E 26194.95933748 .00002644 00000-0 17260-3 0 9995 2 68796 97.5089 343.7420 0015135 352.1883 7.9108 15.08625024 12331 WASEDA-SAT-ZERO-II 1 68797U 26088F 26194.35366026 .00003451 00000-0 22225-3 0 9993 2 68797 97.5084 343.1678 0014909 353.8181 6.2862 15.08919334 12242 MANGARO-II-Piscus 1 68798U 26088G 26194.93935600 .00001779 00000-0 11626-3 0 9992 2 68798 97.5099 343.7769 0018579 354.4657 5.6364 15.08963285 12332 IO-86 1 40931U 25360.30710720 .00000000 00000-0 12800-3 0 00 2 40931 6.0006 332.5373 0012733 338.8432 8.1437 14.79075515 01 LILIUM-4 1 71922C 26067AC 26089.50133053 -.00014632 00000+0 -74472-3 0 04 2 71922 97.4497 49.1617 0004341 5.9603 355.7042 15.16896692 16 /EX